Wind_Speed
15 15 15 16 17 17 17 17 18 18 18 19 18 17 17 17 17 16 16 15 14 14 13 12 11 11 10 11 11 12 13 10 5 4 7 9 11 13 12 14 15 17 15 14 15 13 10 9 11 11 5 3 1 0 4 4 1 1 2 2 1 2 2 3 4 4 2 4 5 2 2 3 1 1 0 1 3 3 2 3 2 2 1 1 7 18 29 30
16 16 16 17 17 17 18 18 18 19 19 19 19 18 17 17 17 16 16 15 14 14 12 12 11 11 10 9 10 11 14 12 7 8 12 8 13 18 13 11 16 19 17 17 18 15 10 9 11 11 4 1 1 1 4 2 1 1 1 1 2 4 4 3 5 4 4 6 5 3 4 4 2 2 1 2 2 3 4 1 1 1 3 1 8 18 27 28
16 16 16 17 17 18 18 19 19 19 19 19 19 18 18 17 17 16 15 14 14 13 12 12 10 10 9 8 9 10 12 10 4 7 7 10 17 19 15 13 17 21 18 18 20 17 12 11 13 11 3 1 1 2 2 1 2 2 2 1 4 5 7 7 8 8 8 6 3 3 3 4 3 3 1 3 4 4 6 4 3 4 5 4 8 16 23 25
16 17 17 17 18 19 19 20 20 19 20 19 18 18 18 17 17 16 15 14 14 13 12 11 10 9 8 7 7 8 9 5 2 4 1 12 21 20 18 15 17 20 17 17 18 16 11 9 11 9 4 2 2 1 2 3 3 2 4 3 4 5 5 10 11 11 9 6 5 4 3 3 3 2 1 5 6 4 6 6 5 7 9 8 9 13 20 22
17 17 18 18 20 21 21 21 21 20 20 19 18 18 18 17 17 16 15 14 13 12 11 10 10 8 7 7 5 6 5 3 2 3 4 10 19 22 20 16 16 17 16 16 13 10 8 7 7 6 3 2 2 1 3 5 5 2 4 6 5 6 3 10 13 12 8 6 4 5 5 4 3 0 2 6 8 5 5 7 6 7 8 7 11 13 17 18
17 18 18 20 22 23 24 23 22 21 21 20 19 18 18 17 17 16 15 14 12 12 10 10 9 7 7 5 2 3 2 1 3 2 6 8 16 22 21 17 16 15 16 15 10 6 6 7 6 5 3 3 4 4 4 4 6 2 4 6 6 7 4 11 14 13 9 7 6 7 5 5 5 2 3 6 7 2 3 7 6 6 7 8 12 14 15 16
18 19 20 21 23 25 26 25 23 22 22 21 20 19 18 18 16 15 14 12 12 11 9 9 7 6 6 3 1 2 2 4 7 3 6 9 15 19 19 17 16 16 17 14 9 5 5 6 6 5 4 3 4 5 5 4 5 4 4 5 7 7 7 7 14 14 12 10 9 7 5 6 7 4 3 6 7 2 2 7 6 5 7 8 10 13 13 14
19 20 21 22 24 25 26 27 25 22 22 21 21 20 18 17 16 15 13 12 11 9 8 8 5 5 6 3 2 2 0 6 6 7 7 12 15 16 18 18 18 19 18 15 11 7 4 5 6 5 5 4 4 4 4 2 2 5 5 5 5 5 8 6 8 14 14 9 7 8 4 6 8 5 4 7 7 3 3 6 6 5 6 6 8 11 10 11
21 21 22 24 25 26 26 27 26 25 23 21 21 20 18 17 16 15 12 11 9 8 8 6 4 3 5 3 1 1 3 6 8 11 10 13 17 19 21 20 21 20 17 16 13 7 5 5 7 7 5 4 4 4 4 1 2 5 6 5 5 7 8 7 4 10 11 7 8 8 3 4 5 4 3 6 5 5 5 6 7 7 7 7 6 7 9 9
22 22 23 25 26 27 28 28 27 26 24 22 21 20 18 17 15 13 11 9 7 6 6 3 3 3 3 2 2 1 3 7 9 11 11 14 20 23 23 20 22 22 15 14 14 12 10 8 7 5 3 2 3 4 3 3 3 4 5 6 8 11 9 6 6 6 10 9 10 8 3 4 4 1 2 4 3 5 7 7 8 8 8 8 5 5 7 7
22 23 24 26 27 28 29 29 28 27 25 22 20 19 18 16 14 12 10 7 5 4 2 3 3 4 3 1 3 2 4 8 9 10 12 16 22 25 25 22 23 24 17 13 15 17 14 11 7 5 3 2 2 3 5 5 3 4 5 7 10 10 9 7 7 5 7 7 8 9 6 3 2 2 4 5 4 5 8 9 8 9 8 8 5 4 5 4
23 24 25 26 27 28 29 30 29 28 26 21 19 18 16 15 13 11 9 6 4 1 2 4 4 4 3 2 3 6 6 6 7 10 12 17 21 22 23 22 23 25 21 12 11 15 13 13 11 7 5 2 1 2 5 6 3 4 3 4 11 8 6 9 6 5 8 6 7 11 6 0 4 5 3 5 5 5 8 9 9 9 8 8 6 5 4 5
24 25 25 26 27 28 29 30 30 30 26 20 17 16 14 13 12 10 9 6 3 2 4 5 5 3 2 1 7 8 6 4 6 10 12 15 17 19 20 19 19 23 22 12 8 13 14 16 13 9 7 4 2 3 2 3 2 4 3 2 6 7 5 8 1 6 7 6 10 9 2 4 7 6 2 6 6 7 8 9 9 8 6 6 6 5 5 5
24 24 25 26 27 28 29 30 30 30 27 19 15 13 12 11 10 9 8 6 2 3 4 6 5 4 2 4 8 5 3 5 10 12 12 15 15 15 17 15 14 18 19 14 13 15 17 20 15 8 5 5 3 3 3 3 1 3 3 1 3 2 5 7 0 7 6 3 7 7 0 5 6 6 4 6 7 8 9 7 6 6 6 5 5 7 5 4
24 25 25 26 27 28 29 30 30 31 27 18 12 9 9 9 8 7 7 5 2 2 4 5 3 2 2 6 9 5 1 9 15 14 14 16 14 11 15 15 14 16 16 15 16 17 18 18 11 4 2 1 1 3 4 4 2 1 1 3 2 2 4 8 3 8 7 3 5 5 2 4 4 6 5 6 7 7 8 8 6 5 6 5 3 5 5 5
25 26 25 26 27 28 29 30 30 31 28 17 9 6 7 7 6 6 5 4 2 2 5 4 0 1 1 4 5 4 4 13 17 16 15 16 15 12 15 15 12 15 16 16 17 17 16 10 4 2 1 1 1 2 4 4 4 1 2 3 3 3 3 5 4 6 9 6 4 3 3 2 3 5 5 6 7 7 7 8 8 6 5 5 3 2 2 5
26 26 26 26 27 27 28 30 30 32 29 17 7 3 4 5 4 4 5 4 3 2 3 1 3 0 2 4 3 3 7 13 15 18 18 16 17 15 15 11 8 12 13 15 16 13 9 4 1 2 0 1 1 3 3 3 4 3 1 3 4 4 3 3 5 3 9 9 5 4 4 2 3 6 7 7 7 8 7 7 7 5 5 4 4 4 3 5
27 27 27 26 26 27 28 29 30 31 29 17 7 5 5 5 2 1 1 2 3 2 2 2 2 1 2 5 4 3 8 13 12 18 20 16 18 18 16 10 6 8 7 7 10 6 2 2 0 1 2 1 2 4 2 5 5 3 2 2 4 3 3 5 5 2 10 8 5 6 4 2 5 7 7 7 7 8 7 7 6 5 5 5 4 6 6 6
28 28 27 26 26 27 27 29 29 31 28 16 7 7 7 5 2 1 1 1 2 1 2 2 3 1 1 6 6 4 7 12 11 16 20 17 17 16 15 12 7 6 4 1 4 3 3 2 1 1 2 4 5 6 8 9 6 4 4 4 4 4 4 6 5 6 11 6 5 8 5 5 8 8 8 8 7 7 6 5 5 5 5 5 5 6 7 7
29 28 27 26 25 26 27 28 29 30 25 14 8 5 3 2 2 1 1 2 4 5 2 3 6 2 5 6 4 4 9 10 9 14 19 17 14 11 9 8 4 4 3 3 3 3 4 3 3 5 7 9 9 10 11 11 9 7 5 4 5 5 5 6 6 6 10 6 5 7 5 7 9 9 9 9 7 7 8 7 6 6 6 6 7 8 7 7
29 28 27 26 25 26 26 28 29 28 19 9 6 3 0 1 0 1 2 3 8 10 8 8 9 7 10 10 9 3 6 5 5 10 19 16 11 8 5 4 4 4 4 4 3 3 3 5 8 9 11 12 11 10 11 11 11 10 8 6 6 4 6 8 6 3 9 5 4 6 7 6 8 9 8 9 9 9 10 10 9 9 8 7 8 9 7 6
29 28 27 26 25 26 26 28 28 23 13 5 3 1 3 3 3 2 3 3 6 10 11 11 8 9 12 16 21 10 4 3 2 6 14 13 8 6 5 3 4 4 5 3 2 4 2 6 12 11 9 10 11 11 10 10 10 10 8 5 4 4 4 7 6 2 7 3 3 7 7 5 6 8 9 11 11 9 9 11 11 11 11 9 9 9 7 7
28 27 26 25 25 25 26 28 22 14 8 3 4 5 4 3 4 7 4 2 6 5 8 8 6 6 9 13 17 9 4 4 3 4 11 11 6 5 5 5 5 4 4 5 5 4 3 7 10 9 9 10 12 13 11 9 7 7 6 4 4 4 2 3 4 2 3 2 4 7 6 3 3 5 7 10 9 6 7 8 8 10 11 11 11 10 9 9
26 25 24 24 25 24 27 25 12 6 9 7 9 10 6 5 8 11 5 1 4 4 5 8 6 5 8 6 7 8 4 3 5 4 9 10 5 4 5 5 6 5 5 7 9 7 8 10 7 6 10 12 12 13 9 6 5 5 6 6 4 5 4 4 2 2 5 5 5 9 6 1 3 5 6 6 6 5 7 7 6 8 9 8 9 9 10 9
24 23 23 24 23 25 28 17 3 7 13 9 10 10 10 10 10 7 2 1 3 4 3 6 4 4 8 5 6 6 3 3 5 6 10 11 7 4 3 4 4 5 8 8 8 6 11 14 8 7 11 9 10 12 9 7 4 3 5 7 7 5 6 5 2 4 5 4 2 5 3 3 4 7 7 5 6 6 7 8 8 8 7 7 8 9 10 9
23 22 22 22 22 27 22 6 2 11 12 8 7 15 16 10 9 6 1 3 2 2 1 2 3 5 7 4 4 3 4 3 7 10 13 12 10 5 3 3 2 5 7 6 5 3 9 13 9 10 11 8 9 10 9 6 2 2 5 6 6 4 4 6 4 2 2 2 5 5 3 2 3 5 7 7 8 7 7 9 10 9 9 9 9 9 9 9
22 21 22 21 22 24 14 3 11 13 6 6 9 16 16 6 6 4 1 3 2 1 2 1 1 5 6 5 6 5 2 4 4 9 12 12 10 4 2 3 1 3 2 1 3 3 6 9 9 10 9 7 6 6 7 5 5 2 7 5 4 3 4 7 6 3 3 1 2 5 4 3 2 5 6 9 8 7 8 10 10 10 11 11 11 10 9 11
22 21 21 20 20 18 10 9 14 9 5 8 12 15 15 6 5 2 3 1 1 1 2 2 1 4 4 5 8 4 3 3 4 6 12 16 12 4 3 6 2 4 4 1 4 5 3 6 9 7 4 4 4 5 7 4 4 4 7 6 5 4 5 7 5 4 3 2 2 4 3 2 3 3 4 7 7 8 10 12 12 11 13 13 12 12 10 11
22 21 21 21 20 13 8 10 11 6 6 10 13 14 14 8 1 3 2 1 1 1 1 2 1 3 1 2 4 4 2 1 2 5 7 10 9 3 3 6 3 5 6 4 6 7 5 6 8 5 2 4 6 7 6 3 3 5 5 4 4 3 4 4 4 4 0 2 4 6 4 2 3 2 4 5 5 9 11 11 12 12 13 14 13 13 12 10
22 22 21 21 19 10 6 11 12 4 8 10 12 13 12 8 4 4 2 1 2 1 0 1 1 3 4 3 2 4 3 3 2 5 4 3 3 1 1 2 2 3 5 4 6 7 6 6 5 4 4 6 5 5 4 5 4 3 1 2 5 4 4 3 3 1 4 1 5 6 4 3 2 3 5 6 6 9 9 9 11 12 12 14 13 13 13 11
23 22 21 20 17 9 6 8 5 5 10 12 13 10 8 5 4 3 1 1 2 1 1 0 2 5 6 5 2 3 4 3 2 7 5 3 1 0 2 2 1 1 4 5 6 6 5 5 3 3 5 4 1 4 2 0 1 2 4 3 3 5 4 4 4 4 4 1 5 5 3 4 1 3 6 9 9 6 9 10 13 15 15 14 13 13 14 12
23 21 20 20 18 15 11 6 2 4 9 12 10 5 3 4 2 1 1 1 1 2 2 3 4 5 7 6 4 4 4 3 4 7 6 4 2 2 3 2 2 0 3 4 4 6 5 5 5 4 5 3 2 2 5 5 5 4 4 4 2 3 4 3 3 2 2 3 5 5 4 3 2 5 6 11 11 9 10 11 14 17 16 15 14 13 13 11
22 20 18 17 17 17 14 8 5 6 9 10 7 3 4 3 1 3 3 2 1 4 3 5 6 6 7 5 3 5 5 3 5 5 6 5 4 4 5 6 7 4 2 3 2 4 4 6 5 2 4 3 5 3 2 3 2 1 2 2 2 1 2 1 3 2 0 4 5 4 4 1 3 4 4 7 10 12 11 11 13 16 17 17 15 14 13 12
20 16 13 11 12 13 10 8 8 6 8 8 5 3 4 2 3 3 4 3 3 4 4 7 7 6 7 6 4 5 4 4 6 6 5 5 3 4 5 6 7 6 2 1 1 1 2 5 3 3 3 4 6 7 6 4 2 2 3 4 4 3 3 2 2 1 2 3 3 2 2 1 2 4 4 3 4 6 8 10 11 13 14 14 13 13 13 12
17 13 10 10 10 10 7 8 7 2 4 5 5 4 2 2 3 3 4 3 3 4 6 8 8 6 6 5 5 6 4 4 7 6 5 5 5 5 5 5 8 6 4 1 2 3 3 5 7 5 5 7 7 6 6 5 2 4 1 4 1 3 5 2 3 4 3 1 2 3 1 2 3 4 4 2 3 3 4 8 9 9 10 11 11 12 12 12
16 11 9 9 10 6 7 10 10 6 2 4 4 1 2 4 3 2 3 3 5 6 7 7 5 5 5 4 4 7 5 4 6 6 4 5 5 6 6 6 8 9 7 4 3 2 1 4 6 4 3 7 9 7 6 5 3 2 1 1 4 5 6 2 3 1 4 3 1 2 2 3 2 3 5 3 2 1 2 7 9 10 12 12 11 12 12 12
17 11 6 8 8 3 9 14 15 10 4 5 3 3 4 4 5 4 4 3 7 8 8 5 4 4 5 4 4 7 6 4 5 5 3 4 4 5 8 6 8 12 12 8 3 2 3 4 7 3 4 7 7 8 7 6 6 4 1 4 3 1 3 2 0 2 4 2 3 2 3 3 1 2 4 4 3 2 3 6 8 9 12 12 12 12 13 13
18 10 6 8 8 6 11 17 17 10 3 4 1 4 3 4 5 4 6 3 4 5 5 4 4 5 6 5 6 7 7 5 6 4 3 4 3 6 9 6 7 14 14 9 3 2 4 2 7 4 4 6 2 5 2 5 4 4 3 4 2 2 2 1 1 0 1 2 2 3 2 2 3 3 3 4 6 5 5 6 8 10 11 11 11 12 12 12
10 4 5 3 9 10 15 19 14 5 3 2 2 4 3 6 7 7 9 6 3 3 3 4 4 4 6 6 6 6 7 6 7 5 3 4 3 6 10 7 7 13 14 12 6 4 3 2 5 4 1 3 4 3 2 5 3 1 2 1 2 3 3 1 1 2 3 2 2 1 0 2 5 4 5 8 9 7 8 7 8 11 11 11 10 11 11 10
3 1 3 4 12 15 18 17 7 3 2 2 3 4 3 5 8 10 10 5 3 2 3 5 4 4 5 6 5 6 6 6 6 5 3 5 3 5 7 8 6 9 12 13 8 4 1 2 3 6 4 5 3 2 4 5 2 1 2 3 2 2 2 1 2 2 4 3 2 2 1 4 5 4 7 10 9 8 10 10 8 9 9 9 10 11 11 9
1 3 2 8 18 21 18 9 2 2 2 3 3 4 5 4 7 11 9 2 3 2 4 3 3 3 3 3 5 5 3 3 5 3 2 5 5 3 4 7 6 6 9 9 7 4 2 3 3 3 4 2 3 6 4 5 6 6 4 4 4 4 2 1 3 3 2 4 3 4 3 6 5 4 6 8 7 8 10 9 8 8 9 9 9 10 10 10
1 2 2 15 25 22 12 2 1 3 2 3 4 6 7 5 6 10 8 2 1 2 2 1 1 0 1 3 3 2 2 2 3 3 3 4 5 4 4 3 7 8 8 5 5 4 3 3 2 2 3 3 7 10 7 5 5 6 5 5 4 3 4 3 4 4 1 1 1 4 3 5 6 4 5 6 6 7 8 9 8 7 9 9 9 10 10 9
1 3 3 19 27 17 6 2 2 2 4 4 4 8 9 6 5 6 5 3 1 1 2 1 1 2 2 3 4 2 1 2 3 1 2 2 3 3 2 5 7 7 5 2 3 2 1 2 1 3 4 4 7 8 6 4 1 3 3 5 4 4 4 5 5 3 1 1 1 4 1 4 6 4 3 3 3 5 6 7 9 7 7 9 10 10 9 9
1 4 2 14 22 10 4 2 3 3 4 5 7 10 10 5 5 5 3 2 2 2 3 2 1 3 2 2 5 4 2 4 5 6 4 2 1 2 6 10 8 5 3 2 2 0 0 1 2 2 4 6 7 7 7 6 3 2 4 4 4 6 6 3 0 3 2 1 4 5 2 5 5 2 2 2 4 5 5 6 8 8 8 8 9 9 9 10
2 2 2 7 13 5 0 3 2 4 6 8 9 11 10 6 5 4 2 3 4 3 3 3 3 4 3 4 6 6 5 5 2 5 6 4 3 4 7 9 5 4 2 3 4 3 1 2 3 3 1 1 2 3 3 3 3 3 4 5 4 6 6 3 1 3 1 2 4 5 4 5 5 3 4 4 5 5 4 5 5 6 8 8 8 9 8 9
2 1 2 1 4 2 2 3 3 3 6 8 7 7 7 7 6 3 2 3 4 3 3 3 4 4 5 6 6 5 7 6 3 3 5 5 4 3 5 7 3 2 4 6 6 4 3 1 2 5 4 4 5 7 5 2 3 5 7 8 8 6 3 2 3 2 3 3 2 3 6 5 2 2 4 3 6 6 5 6 5 5 7 8 8 9 9 9
2 2 2 2 1 3 3 4 3 3 6 6 4 6 8 10 8 4 2 2 2 3 4 4 5 4 3 6 5 4 6 6 6 5 4 4 3 4 6 7 2 1 4 5 3 4 4 2 1 4 4 5 6 9 8 5 5 8 9 9 9 8 3 2 3 5 5 6 1 3 5 8 5 5 6 5 6 6 5 7 6 5 7 7 7 9 9 9
1 1 2 2 1 2 2 4 5 6 9 8 4 4 7 10 8 4 3 2 2 5 3 3 7 6 5 6 5 3 5 5 5 6 5 5 4 5 7 6 4 5 6 4 2 4 5 1 4 2 3 6 7 9 9 7 7 8 8 8 9 9 5 4 6 5 7 6 4 4 6 7 5 5 7 8 7 7 6 5 5 6 7 7 8 10 10 9
2 2 3 3 1 3 4 6 8 9 10 7 3 2 5 8 9 7 3 2 3 6 3 3 7 10 10 10 8 5 6 5 5 6 5 6 6 5 5 5 5 8 7 4 3 3 4 1 4 1 3 8 8 8 9 8 7 8 9 10 10 8 5 5 3 6 11 8 7 9 8 4 2 5 7 5 4 5 4 4 6 7 8 8 8 10 10 10
2 1 3 3 3 4 4 5 7 6 7 6 5 6 6 6 7 6 4 5 4 5 6 5 6 10 13 13 11 8 6 5 5 4 4 5 6 4 3 3 4 8 8 4 3 3 4 2 4 1 2 6 7 7 8 8 7 8 9 9 9 8 6 6 5 9 11 8 8 11 10 3 2 3 4 5 5 6 5 5 6 6 7 8 8 8 9 9
4 4 3 2 3 4 3 4 5 4 4 6 7 9 9 6 7 6 5 7 7 6 8 8 6 8 10 12 12 8 6 6 6 4 3 2 3 1 1 1 3 6 7 4 3 3 3 1 2 4 3 5 6 6 9 9 7 6 8 10 11 8 5 6 7 7 8 10 10 10 8 2 3 2 6 5 5 6 5 5 5 5 7 8 8 8 9 8
8 5 4 1 2 4 4 4 5 4 4 5 8 12 9 5 9 9 4 6 8 8 9 9 7 6 7 11 10 6 5 6 5 5 3 3 4 3 2 3 3 3 4 3 2 1 2 1 2 2 2 4 6 6 7 6 6 6 8 12 10 6 9 9 8 8 7 8 8 6 3 3 1 4 5 4 4 4 4 4 5 6 7 7 8 8 8 8
Wind_Direction
354 352 351 349 347 345 342 340 338 337 335 334 333 332 330 329 328 328 329 327 326 325 327 326 323 322 322 338 341 336 334 328 315 256 239 242 204 169 162 176 171 160 168 171 166 171 175 198 191 163 155 152 174 235 152 160 131 89 87 79 88 197 186 193 205 217 287 284 258 250 212 221 226 140 189 10 51 100 78 2 355 16 277 15 75 126 143 152
354 353 350 350 349 345 342 340 337 335 333 331 331 331 328 327 326 326 326 326 325 324 327 324 323 322 325 345 343 338 334 324 317 267 246 228 181 178 172 174 178 164 169 177 175 181 179 194 179 154 149 144 176 192 148 145 162 147 106 111 213 209 148 165 236 212 225 256 240 223 212 225 206 153 143 121 117 143 140 324 7 20 277 30 93 130 140 147
355 353 351 350 347 344 342 338 336 334 332 333 332 330 328 327 325 324 324 324 323 325 326 321 321 321 332 350 344 340 332 329 313 267 248 193 175 178 171 166 178 174 179 184 180 186 189 192 175 153 145 187 211 195 182 166 190 178 137 188 239 214 141 151 232 224 215 246 233 206 193 220 197 132 166 138 142 180 176 191 167 182 215 153 124 137 141 149
354 352 351 350 346 343 341 338 337 335 334 335 332 330 328 326 325 323 322 322 322 324 323 322 320 320 341 352 346 338 329 351 264 266 155 181 181 173 165 163 177 182 193 193 183 191 206 208 183 165 144 202 257 189 194 198 194 175 158 212 231 207 148 151 210 236 225 227 210 184 140 198 203 108 230 143 140 215 217 203 191 187 193 161 136 141 147 155
353 351 351 348 347 345 342 339 337 336 335 334 331 328 328 327 324 322 322 322 322 323 323 322 320 325 348 348 339 333 336 64 241 256 119 174 183 175 167 164 177 185 195 199 193 198 222 237 202 178 151 189 236 177 221 201 178 198 207 231 232 214 167 146 191 235 224 207 200 165 153 170 151 118 218 171 173 212 210 199 203 191 190 165 139 144 152 159
353 351 351 349 348 348 345 342 338 336 334 332 330 327 326 326 323 323 322 321 322 322 324 322 323 338 349 350 342 335 21 139 269 211 133 161 179 177 169 169 180 186 196 201 200 199 218 229 206 193 180 187 202 199 243 208 165 219 252 244 245 235 211 147 173 218 215 191 193 174 169 140 139 217 212 198 204 201 168 178 194 196 188 165 140 148 159 162
352 352 352 350 349 348 347 346 341 336 333 331 329 328 327 326 324 324 322 322 323 321 324 320 330 356 355 27 91 25 75 254 266 200 143 152 172 175 168 175 183 186 197 200 198 199 214 219 210 198 180 186 201 206 243 220 172 211 267 263 256 248 242 180 162 192 205 195 186 162 151 153 171 199 166 213 217 169 165 171 181 189 173 164 149 156 163 161
353 352 351 351 349 348 347 347 344 337 333 331 331 331 329 327 324 323 322 320 321 321 321 321 343 13 14 64 118 30 39 254 231 184 162 152 166 171 167 177 186 189 193 200 200 193 213 232 231 216 186 200 200 202 228 236 209 222 240 256 260 256 250 241 169 173 192 200 164 141 164 184 180 159 151 222 221 184 201 171 168 165 157 172 167 160 157 158
352 351 350 351 349 348 347 346 345 340 335 333 332 333 330 328 325 322 320 316 318 319 314 326 360 27 29 37 93 53 235 220 170 169 168 160 169 171 172 179 188 189 189 203 205 197 220 223 230 229 206 204 198 211 211 158 252 224 220 244 265 274 264 263 234 172 170 183 149 136 186 199 170 138 169 232 211 182 187 165 163 159 161 181 181 158 153 162
351 351 351 350 349 348 347 346 344 341 338 335 334 336 336 333 328 323 318 313 314 311 313 350 32 62 42 357 139 109 222 182 157 171 177 171 172 173 179 186 189 188 187 203 203 205 218 211 226 248 233 211 197 222 218 179 225 236 245 275 270 275 279 258 248 199 156 172 170 142 151 187 176 161 240 233 180 169 164 155 164 161 169 181 179 154 152 169
349 350 350 349 348 347 347 346 344 343 339 336 337 341 342 340 337 331 321 317 308 302 350 65 76 83 50 37 141 194 207 181 177 179 180 178 176 179 185 190 191 188 188 200 206 211 224 240 263 292 269 232 197 251 258 217 215 250 262 300 283 283 292 261 248 221 156 174 180 128 107 143 159 254 238 200 154 159 155 150 165 164 172 178 167 157 153 183
348 349 348 347 347 346 346 345 345 345 342 338 339 342 345 347 347 341 333 330 316 316 88 106 106 90 51 46 212 209 178 191 199 176 180 184 186 190 187 190 195 191 193 198 210 217 232 252 261 270 252 193 138 271 265 233 217 259 254 302 290 310 311 268 252 195 163 164 156 117 83 63 204 240 218 161 146 147 155 153 165 166 170 171 156 161 171 195
346 346 346 344 345 345 344 344 345 346 344 339 338 343 347 351 353 350 349 344 342 86 107 121 114 89 70 252 241 210 179 236 203 169 178 186 191 195 186 192 201 198 200 204 221 228 240 252 254 259 241 171 192 237 274 258 241 280 265 215 283 333 313 271 241 151 150 156 157 124 57 261 229 241 144 147 150 141 161 161 162 162 162 166 155 164 181 199
343 343 343 343 343 343 342 343 344 345 345 339 335 343 349 354 357 353 355 352 9 92 129 130 114 98 110 253 268 261 254 236 189 168 168 176 182 189 190 197 208 208 209 218 237 245 256 262 262 260 231 179 208 274 343 331 258 271 296 254 267 317 279 281 250 133 120 180 170 119 133 247 234 229 153 156 158 151 170 159 157 164 151 155 156 166 177 198
342 342 342 342 341 341 341 341 343 344 344 338 329 342 355 359 2 0 6 11 36 96 131 126 128 105 41 281 280 301 244 185 189 181 161 162 166 180 199 202 210 218 219 226 241 252 260 264 262 259 261 206 24 340 339 330 298 246 284 306 288 206 262 298 268 158 141 208 193 120 167 250 235 207 165 159 158 163 174 150 164 189 149 133 136 166 180 186
341 340 340 341 339 339 339 340 343 342 342 338 322 341 4 5 11 18 25 42 80 112 119 100 94 152 41 291 274 290 176 175 192 191 168 160 162 175 194 199 214 223 226 233 243 255 264 273 272 232 279 16 46 4 352 337 316 301 183 256 274 229 277 318 291 191 153 154 205 170 162 220 226 188 164 164 161 167 175 154 171 190 150 129 125 161 208 183
339 337 338 339 337 338 337 338 342 340 339 337 316 325 2 1 21 40 41 62 86 117 138 53 356 218 264 283 280 264 202 190 190 181 176 171 172 178 183 194 226 225 230 241 249 259 265 279 280 242 328 73 146 103 30 318 286 302 224 241 255 240 265 296 303 254 154 151 190 190 170 180 173 166 165 172 164 163 177 166 172 179 147 149 152 167 216 195
336 335 336 336 335 336 335 337 340 338 336 333 311 298 320 327 324 15 42 85 84 62 296 298 353 55 268 269 268 247 204 205 194 176 177 180 184 187 182 190 214 214 221 243 252 256 239 271 310 311 330 258 200 134 159 235 217 226 212 232 275 272 259 244 274 221 165 164 178 184 199 157 139 159 173 179 169 164 177 173 173 179 158 161 170 182 197 188
334 333 333 334 333 334 334 335 339 337 334 330 313 300 305 307 285 253 208 156 105 101 296 223 180 72 276 247 250 241 193 193 185 177 180 184 193 198 194 197 197 192 178 178 255 240 183 273 329 261 255 229 223 190 206 227 216 222 216 204 237 261 270 246 246 197 167 156 180 190 192 148 146 168 179 183 178 164 170 171 171 183 176 170 179 201 199 174
331 331 331 332 332 333 333 334 338 337 332 330 336 331 322 336 332 308 218 198 212 221 254 195 187 260 293 284 265 190 178 178 164 175 186 187 189 198 207 209 182 166 169 163 233 245 183 226 245 220 222 224 227 213 217 234 244 259 258 239 238 253 278 267 261 200 160 152 210 195 157 148 160 172 179 182 184 173 170 175 180 186 189 184 187 204 197 171
328 329 330 330 331 332 332 334 337 335 330 329 344 360 117 5 48 305 296 235 228 224 245 236 206 239 267 286 293 206 153 164 152 177 192 190 181 182 198 193 152 178 215 186 218 268 191 212 237 225 223 230 236 230 224 232 242 252 253 257 265 260 262 270 282 189 155 157 210 164 137 159 168 168 173 175 185 191 182 180 183 184 187 190 195 200 189 166
327 328 329 329 330 330 331 335 335 331 324 306 323 296 253 256 211 282 319 284 256 218 228 247 235 252 262 271 275 262 126 136 172 196 196 185 176 188 183 157 152 191 223 192 227 276 242 245 246 233 234 246 254 254 243 239 241 242 241 243 264 264 268 289 308 139 150 164 185 148 138 163 169 162 168 178 191 196 189 187 184 178 180 188 194 195 184 166
327 327 329 329 329 329 331 336 336 334 325 278 237 229 242 267 276 314 326 282 287 229 211 236 231 245 260 267 258 227 131 148 184 223 197 173 170 185 165 167 181 196 216 191 202 229 230 253 245 224 232 244 252 256 253 256 254 236 222 201 243 259 244 288 310 78 91 80 135 124 103 117 149 155 173 186 194 190 188 195 189 182 182 187 192 190 184 175
329 330 331 329 329 329 332 337 344 8 353 307 259 252 260 284 295 316 332 200 284 274 223 217 200 216 242 247 209 175 136 168 179 207 188 168 159 163 166 183 185 204 221 200 203 218 234 249 247 218 228 234 248 261 258 257 266 250 219 195 217 247 234 243 237 109 40 30 107 107 79 33 168 175 196 192 187 184 183 188 197 200 191 188 192 192 191 182
334 334 332 331 332 329 331 339 32 20 350 300 275 307 321 298 288 302 342 60 278 282 260 214 194 231 236 206 172 175 141 180 201 188 178 176 167 151 190 190 165 209 225 215 210 224 247 252 248 236 239 232 241 259 253 229 245 293 253 214 203 223 255 261 197 115 58 357 225 128 101 267 211 190 199 189 182 185 182 187 198 205 197 191 195 198 197 189
337 336 334 333 332 331 336 356 347 341 329 282 300 341 334 299 274 270 191 49 312 264 93 166 166 212 227 196 161 127 99 221 219 183 178 188 187 171 210 211 174 215 217 216 211 209 246 247 235 234 245 237 231 247 244 206 145 331 265 234 214 216 264 274 253 152 115 242 229 184 162 241 230 215 202 185 187 187 182 193 199 199 199 197 197 200 197 194
336 336 334 332 334 337 340 314 315 322 297 286 319 336 338 308 233 236 120 40 320 210 137 194 150 176 198 182 148 104 117 228 197 178 182 188 190 162 200 243 305 239 229 218 243 235 237 251 247 233 236 238 232 244 240 176 121 247 249 243 257 269 284 278 275 253 202 204 201 190 164 115 217 240 197 174 181 188 189 198 200 198 200 199 198 201 199 196
333 334 331 327 332 334 320 296 312 306 256 302 315 328 349 344 224 182 84 31 294 115 151 218 208 178 188 169 160 154 224 193 149 192 189 183 184 135 193 242 265 270 286 285 256 268 249 267 264 242 233 244 231 234 238 188 140 233 246 250 260 254 257 262 272 270 212 93 336 232 172 106 261 262 166 163 180 201 204 201 199 197 198 199 199 199 201 199
331 330 326 323 325 326 312 291 290 284 294 319 323 331 351 353 308 103 71 124 144 293 197 157 153 185 175 144 183 223 268 285 196 197 169 178 193 152 192 228 224 271 276 211 236 270 254 252 253 241 256 246 232 234 231 198 210 245 249 266 294 277 270 276 269 277 334 97 267 241 176 150 272 255 154 162 205 220 210 200 200 198 195 197 199 198 199 199
328 325 323 320 317 321 320 287 274 310 359 349 340 336 345 360 52 81 21 149 164 248 212 95 131 161 153 151 223 233 225 283 244 155 136 173 201 201 228 222 191 268 293 258 254 263 253 257 249 229 224 216 228 243 208 179 216 267 348 11 350 325 311 324 285 331 60 28 264 240 183 148 279 256 181 180 216 215 199 193 197 198 195 195 197 196 197 196
323 321 318 311 303 297 293 281 276 25 15 354 344 339 347 14 77 92 46 145 160 188 93 130 180 150 156 170 206 216 206 258 198 145 165 195 124 328 320 351 262 274 320 297 283 289 301 300 269 237 232 216 253 293 291 345 327 19 43 53 6 328 348 6 349 40 81 262 264 240 169 121 189 254 208 207 230 214 185 190 192 193 195 194 193 193 194 193
320 317 310 300 288 271 252 228 182 13 356 354 355 354 37 56 46 147 216 336 46 190 189 183 184 165 168 182 204 201 183 206 189 161 170 174 144 186 196 187 183 132 311 274 294 323 319 284 258 261 265 237 157 277 311 341 1 34 49 52 27 326 357 7 333 16 116 250 250 206 144 108 234 249 214 211 227 222 197 194 191 190 191 190 191 190 190 190
320 317 307 294 278 263 249 228 236 294 332 358 15 38 79 80 268 219 219 284 197 188 168 156 175 167 163 180 221 200 176 179 193 181 172 160 153 200 212 206 185 162 227 246 333 336 312 298 290 281 279 239 161 177 285 310 332 36 115 115 130 132 33 323 295 345 217 266 261 200 131 56 286 275 227 206 221 221 208 197 190 188 187 186 187 185 186 188
325 323 309 292 274 263 249 227 232 267 330 2 39 64 72 104 242 230 221 226 189 185 154 149 165 164 170 194 217 194 170 184 195 178 167 153 142 205 227 229 209 184 180 279 327 223 262 309 282 209 241 227 188 188 187 173 169 233 198 147 136 152 150 204 228 181 206 259 298 6 78 154 226 267 248 230 247 232 212 200 190 185 183 180 178 179 183 186
334 326 306 289 275 262 229 202 205 225 360 25 62 66 91 211 253 251 227 194 170 186 162 153 157 166 194 217 226 213 175 178 196 177 167 172 173 196 203 219 216 189 152 191 237 202 209 257 244 231 216 196 198 198 170 138 150 263 224 101 125 190 158 170 210 185 167 169 329 347 318 204 202 262 282 307 307 269 209 185 171 171 170 165 169 178 182 185
340 329 304 280 270 255 196 185 175 156 100 72 77 89 202 223 225 228 251 191 172 170 147 148 159 169 207 233 245 228 196 173 191 182 184 196 199 199 194 207 205 185 170 178 220 209 180 262 265 278 249 206 199 195 173 144 152 276 338 157 229 190 144 150 271 268 87 91 287 286 262 286 322 306 306 312 289 290 154 160 162 165 163 163 174 180 181 185
341 337 308 265 259 212 170 173 161 152 124 84 105 226 233 247 221 212 274 232 167 151 133 151 189 178 194 217 245 224 194 184 193 186 192 204 223 211 202 216 199 191 193 182 200 219 168 274 284 269 276 254 200 178 191 180 145 123 191 219 244 55 95 115 253 348 51 103 256 250 213 246 311 285 295 295 255 210 150 156 157 159 163 170 179 180 181 185
334 332 302 256 230 178 159 163 157 149 106 78 193 254 246 253 231 218 273 274 147 146 145 163 186 180 181 199 234 213 175 177 190 183 193 200 235 212 195 209 201 199 200 177 181 246 162 264 290 248 246 277 192 129 201 241 183 151 193 189 121 67 309 339 104 317 60 127 259 283 251 214 208 228 252 247 232 196 162 158 156 163 173 176 178 179 179 179
329 335 324 238 187 170 156 157 154 131 68 81 236 251 240 254 257 259 266 252 162 156 178 184 186 188 192 197 213 196 173 184 184 179 195 180 231 228 193 193 213 207 194 169 179 248 166 151 292 279 306 349 8 74 172 250 266 308 285 276 111 160 198 224 181 170 145 156 221 246 295 242 231 220 202 219 225 187 165 175 174 176 179 176 174 176 175 172
332 9 336 150 159 162 152 149 136 69 79 192 228 253 280 279 278 281 270 229 168 162 187 198 191 188 210 209 199 181 178 193 180 175 199 171 194 258 208 187 212 207 184 170 180 233 208 139 256 291 353 34 353 266 187 200 211 220 259 264 263 226 200 215 237 185 138 151 180 151 181 259 254 215 199 216 223 192 176 178 180 179 176 174 173 172 171 166
29 18 309 158 152 150 141 131 87 105 193 250 243 259 280 278 285 292 287 219 147 206 198 181 165 177 210 200 192 186 168 197 192 177 224 189 178 260 227 191 190 169 162 170 188 207 205 163 189 292 344 25 278 264 220 188 181 176 195 216 215 208 168 110 284 279 132 144 168 146 176 254 253 207 205 216 215 198 180 168 169 172 168 170 172 171 168 161
102 15 189 157 152 147 130 94 254 173 219 260 232 254 276 276 283 294 297 328 101 241 223 110 76 244 31 95 146 169 135 174 204 194 217 187 164 212 249 186 155 144 139 161 220 214 164 118 141 272 281 253 270 273 265 238 192 174 196 212 192 154 131 146 237 263 329 42 131 112 143 245 257 237 223 224 212 190 168 157 160 164 164 166 169 171 167 156
77 327 201 160 157 147 100 349 271 211 237 255 258 268 274 265 256 275 300 337 350 317 11 27 25 27 22 77 93 75 106 100 52 357 232 136 138 232 312 78 111 119 103 98 268 269 71 74 48 304 302 301 299 298 304 313 71 127 233 223 177 171 179 179 194 193 11 321 99 86 108 255 272 281 252 232 197 152 148 159 157 153 156 159 163 168 167 154
313 299 242 168 168 152 63 249 271 301 274 297 306 295 294 279 244 253 291 336 327 23 37 317 325 49 3 27 66 50 49 76 39 0 360 58 31 358 52 69 85 90 95 163 175 215 239 98 77 27 349 342 337 341 342 337 4 33 279 258 202 202 208 219 101 83 51 226 145 118 189 250 273 312 102 135 134 129 149 166 157 150 154 158 159 163 164 157
303 262 292 189 187 188 67 209 283 318 305 317 311 302 307 297 263 253 275 333 333 34 56 319 344 45 12 24 53 43 47 76 60 358 10 13 343 12 47 52 70 103 128 143 121 102 130 131 107 109 96 337 307 297 288 295 319 315 286 287 274 230 214 227 18 77 84 216 148 136 179 242 293 25 88 126 139 135 157 165 157 154 153 155 156 159 164 161
9 56 349 259 208 254 271 257 297 290 295 316 309 293 301 305 302 305 4 352 333 11 34 344 3 28 14 30 49 40 39 49 52 33 24 13 349 332 13 25 43 135 107 109 112 97 87 73 117 136 160 191 215 239 244 254 302 296 292 298 296 270 222 129 92 128 184 167 165 185 161 160 242 120 120 171 164 148 162 167 164 156 147 152 159 160 164 164
35 47 23 21 299 283 282 280 276 253 268 289 294 286 301 313 311 312 10 5 333 21 22 355 8 32 39 42 48 44 41 40 36 28 12 5 339 309 355 21 33 81 78 101 117 99 86 338 258 160 190 221 229 252 266 270 270 271 278 292 301 297 285 125 166 203 168 128 153 253 153 147 188 179 159 186 175 157 176 178 170 159 147 150 156 157 160 161
11 21 21 24 275 251 290 291 285 287 282 270 248 260 295 313 317 320 342 329 5 38 46 2 9 26 60 65 65 43 32 45 38 16 357 353 351 347 359 2 351 5 23 29 33 95 111 240 246 196 272 279 269 270 274 275 268 265 270 281 293 291 270 249 240 197 135 127 171 197 160 158 189 195 179 186 176 164 173 167 145 137 136 142 149 156 162 162
6 355 345 360 314 239 255 281 289 297 297 287 267 266 293 316 329 338 346 348 9 24 54 62 29 34 42 49 59 47 28 40 37 14 3 0 3 9 1 343 341 354 3 8 354 75 103 253 257 211 297 292 289 292 301 308 297 285 282 276 276 278 280 296 280 129 112 112 136 134 128 134 207 210 190 177 151 141 131 115 122 128 134 144 151 156 162 165
14 331 338 344 308 278 268 292 303 303 314 332 345 328 315 322 336 342 14 44 35 15 17 31 50 56 52 48 51 47 35 44 38 18 22 16 5 9 2 349 347 342 343 353 347 33 79 258 264 84 22 298 302 315 323 324 310 299 296 285 285 304 337 12 57 100 97 87 98 107 106 94 290 233 153 117 102 109 113 120 130 135 141 148 151 153 160 165
332 300 327 332 287 309 325 322 320 323 344 359 354 332 323 339 357 355 18 38 46 41 20 19 45 61 55 48 41 28 16 28 20 357 2 358 326 272 208 283 351 341 332 340 353 19 68 289 308 50 38 297 304 333 331 328 333 342 341 327 320 328 4 53 83 95 100 102 92 85 99 160 283 53 92 108 121 128 144 144 131 139 153 154 155 159 163 165
350 326 338 350 260 321 347 330 329 358 9 352 344 332 321 358 31 32 33 12 18 33 29 30 49 60 54 44 28 347 337 6 356 331 326 311 308 304 252 274 315 314 295 319 351 339 114 89 332 51 63 284 295 325 331 349 19 10 346 337 342 47 74 60 59 63 71 99 104 102 139 230 287 85 102 135 135 133 170 172 146 152 161 160 161 165 170 174
Height
817 816 815 813 812 810 809 807 806 804 803 801 799 798 797 796 794 794 793 792 791 789 789 788 787 786 785 785 784 783 782 781 781 782 780 775 774 777 778 780 781 783 785 786 788 789 790 792 793 793 795 796 799 799 799 798 798 804 812 821 825 826 824 816 814 813 808 804 799 795 795 800 800 795 791 790 794 796 796 795 792 790 788 789 792 792 794 799
817 816 814 813 812 810 808 807 805 803 802 800 798 797 796 795 793 792 792 791 790 788 788 787 786 786 784 784 784 782 781 779 780 779 774 771 773 775 776 778 781 782 783 785 786 786 789 791 791 792 795 799 801 799 799 799 800 807 813 821 822 818 817 810 804 805 804 801 797 794 794 796 798 795 791 797 802 798 800 800 795 795 791 791 794 794 794 797
817 815 814 812 811 809 807 805 804 802 800 799 797 796 795 793 792 791 791 790 788 787 787 786 785 784 784 784 783 782 781 779 779 774 768 768 771 773 775 777 779 780 781 782 784 785 787 788 789 792 797 801 800 799 802 801 803 806 812 820 814 804 811 813 801 798 799 795 795 796 793 794 794 793 793 799 805 802 803 801 798 799 794 793 796 794 795 796
816 815 813 811 810 808 806 804 802 801 799 798 796 795 794 792 791 790 789 788 787 787 786 785 785 784 784 783 783 782 780 781 777 768 765 767 769 771 774 776 777 780 780 781 784 786 787 787 788 791 798 804 800 799 803 802 802 804 808 813 804 795 806 813 800 791 794 793 794 795 795 796 792 792 795 798 806 807 801 796 794 795 791 792 796 794 795 796
816 814 812 811 809 807 805 803 801 799 798 796 795 794 792 791 789 788 787 787 786 786 785 785 784 783 784 783 783 781 781 787 777 764 766 766 767 770 772 775 777 778 779 782 784 785 787 787 789 793 799 805 803 802 802 796 796 803 803 799 794 792 800 807 798 789 791 791 793 795 796 796 791 793 795 796 803 802 794 790 789 788 787 789 793 793 794 796
815 813 812 810 808 806 804 801 799 798 796 794 793 792 790 789 788 787 786 785 785 785 784 784 783 783 783 782 783 781 783 787 773 763 767 765 767 769 771 774 776 778 779 781 783 784 787 786 791 798 800 803 804 803 799 791 792 802 800 791 789 788 792 799 798 792 789 791 793 793 790 791 795 795 793 794 795 790 785 784 785 784 784 786 791 793 793 796
815 813 811 809 807 805 802 800 798 796 795 793 791 790 788 787 786 786 784 784 784 783 783 783 783 783 782 782 782 782 783 779 765 764 767 765 768 769 771 774 775 778 779 780 781 783 785 787 793 796 798 802 801 798 794 789 790 799 800 790 785 784 783 787 793 793 789 790 787 786 787 790 796 796 792 792 789 785 782 781 782 783 783 785 790 793 793 795
814 812 810 808 806 804 802 800 797 795 793 791 790 788 787 786 785 784 783 783 783 783 783 782 783 782 782 782 782 783 783 772 762 764 765 765 768 768 771 773 775 777 777 778 779 780 783 787 790 790 797 798 794 794 791 791 794 796 797 789 782 781 778 776 783 789 789 787 784 785 788 788 790 791 792 790 785 783 781 781 782 783 784 785 789 792 793 794
813 812 809 808 806 803 801 799 797 795 792 790 789 787 786 785 784 783 782 782 782 782 782 782 782 782 782 782 782 784 777 764 761 764 764 765 767 768 770 771 773 775 775 777 776 779 783 785 785 784 792 791 789 791 788 796 799 791 789 786 782 781 776 773 776 782 785 784 783 788 790 787 786 788 791 787 783 782 781 782 783 784 787 787 788 790 792 793
813 811 809 807 804 802 800 798 796 793 791 789 787 786 785 784 783 782 781 781 781 781 781 782 782 781 783 781 783 783 769 760 763 763 763 765 765 767 769 769 771 772 774 775 775 777 777 779 778 776 783 786 787 789 788 793 792 783 783 783 781 779 775 773 774 775 780 782 781 786 792 788 785 790 793 784 780 781 781 784 784 785 788 788 788 788 789 792
812 810 808 806 804 802 799 797 795 792 790 788 786 785 784 783 782 781 780 780 780 780 781 781 781 782 782 781 783 778 764 761 763 761 763 764 764 765 766 768 769 770 772 772 773 773 773 774 774 777 785 785 786 789 786 783 782 779 782 784 780 777 776 771 772 774 777 781 778 780 791 791 788 793 790 781 779 780 782 786 785 786 788 788 789 788 788 791
811 810 808 805 803 800 798 796 794 791 789 787 786 784 783 782 781 781 780 780 779 780 780 781 782 781 781 782 781 770 761 762 762 762 763 762 764 764 765 767 767 768 769 770 772 772 774 773 773 783 786 782 787 793 785 775 777 779 781 790 785 779 779 770 768 771 773 779 775 777 794 799 795 791 784 779 779 780 783 786 786 786 787 788 790 790 789 790
811 809 807 805 802 800 798 795 793 791 788 787 785 784 783 782 781 781 780 780 780 780 780 781 781 781 783 780 769 762 762 763 762 762 763 763 764 765 766 767 767 768 768 769 772 771 773 773 773 780 777 779 788 785 777 772 777 781 782 791 791 790 786 769 766 770 771 777 769 776 801 804 794 787 782 780 779 782 786 786 787 787 787 788 790 791 791 789
810 809 806 804 802 799 797 794 792 789 787 786 785 784 783 782 782 781 780 780 780 781 781 781 781 781 783 775 761 759 762 762 763 762 762 763 764 766 767 767 768 769 769 770 771 770 771 770 771 774 771 775 778 773 777 781 782 786 788 790 794 801 792 769 767 772 776 778 766 776 802 801 790 786 783 781 780 783 787 788 790 789 788 789 789 791 791 789
810 808 806 803 801 799 796 793 791 788 787 785 784 783 782 782 782 781 781 781 780 781 780 781 782 781 783 774 759 758 761 761 763 761 761 762 763 766 765 766 768 768 769 770 769 769 769 768 770 776 774 769 771 781 791 792 787 788 798 801 796 799 791 772 767 769 775 777 768 778 800 799 790 787 783 781 782 784 787 791 794 792 789 790 790 791 791 790
809 807 805 803 800 798 795 792 790 787 785 784 783 783 782 782 781 781 781 780 781 781 781 782 782 782 784 773 759 757 759 759 760 760 761 761 762 764 764 766 767 767 769 768 768 767 766 768 770 773 775 775 781 792 799 802 799 793 800 806 798 795 794 782 770 764 767 775 775 779 793 797 790 786 784 782 783 785 787 791 794 794 790 790 791 792 793 791
808 806 803 802 799 797 794 791 789 786 784 783 782 782 782 781 781 781 781 781 782 781 781 782 782 784 779 765 760 760 756 756 758 759 761 761 762 763 764 766 766 766 767 767 767 767 767 770 773 775 777 783 787 794 809 818 810 799 799 802 796 793 795 789 777 767 765 773 779 779 785 791 788 785 785 783 784 786 788 791 792 792 792 791 791 793 795 794
806 804 802 800 798 796 793 791 788 785 783 782 781 781 781 781 781 781 781 781 781 781 783 782 783 786 778 764 762 759 753 754 757 758 760 760 761 762 763 765 765 766 770 773 771 771 773 773 778 785 788 789 790 797 815 815 802 798 799 799 796 791 791 790 781 771 769 774 779 782 786 789 790 787 786 784 784 788 789 790 791 791 792 793 793 794 795 794
805 803 801 799 797 795 792 790 788 785 782 780 780 780 780 780 780 780 781 782 782 781 780 780 779 780 775 764 757 754 752 753 756 758 759 759 761 763 763 763 764 769 778 785 781 776 777 781 787 795 797 795 792 795 802 796 790 793 793 793 794 792 787 781 774 765 766 777 782 782 785 789 793 791 788 786 785 788 791 790 791 792 792 794 795 794 793 793
804 801 799 797 795 793 791 789 787 784 781 780 780 779 780 781 782 782 781 780 778 773 770 771 772 770 767 759 752 752 753 753 756 757 757 758 760 763 764 764 768 774 782 789 788 777 777 792 798 797 795 789 786 786 786 785 785 788 790 791 788 790 786 772 766 760 759 776 783 779 783 789 791 791 788 787 787 789 792 793 793 793 793 794 794 794 791 791
802 800 798 796 794 792 790 787 786 783 781 780 780 780 781 782 785 785 780 775 769 765 766 764 764 766 761 756 752 751 754 757 757 755 757 757 758 768 770 769 778 786 784 785 786 777 780 797 797 787 784 779 777 778 779 782 784 786 791 791 786 786 782 768 762 759 755 771 781 778 785 791 789 789 788 787 789 790 789 791 793 792 793 793 792 792 790 789
801 799 796 794 792 790 788 786 784 782 780 780 780 780 779 776 778 778 777 777 768 760 763 761 762 764 756 753 752 749 755 763 763 757 755 756 760 771 773 773 784 790 783 783 788 788 794 798 787 778 776 775 776 774 776 781 782 785 787 789 788 782 778 769 760 757 756 767 779 781 788 793 787 786 788 787 787 786 784 786 787 789 791 792 791 790 789 790
800 797 794 792 790 788 786 785 783 780 780 780 780 779 775 772 772 772 775 780 773 760 759 761 762 763 758 755 750 749 758 765 768 762 753 757 764 767 773 778 784 787 785 788 793 799 803 791 774 771 772 775 777 773 775 780 780 781 782 786 788 779 779 780 768 762 761 766 776 782 790 794 790 788 789 786 784 784 783 784 784 785 787 788 787 787 787 789
798 795 793 790 788 787 784 784 781 780 780 779 779 775 772 772 772 773 774 779 778 764 755 755 756 758 757 752 747 751 760 760 763 761 752 758 765 765 771 776 782 787 787 786 788 795 795 777 764 768 770 773 778 774 774 781 781 776 773 779 781 774 774 775 770 767 769 773 774 781 800 804 795 795 794 786 785 785 785 786 786 785 785 786 786 785 785 785
796 794 792 789 787 785 783 783 780 780 781 778 776 772 772 772 770 773 776 783 785 768 754 752 753 753 748 747 748 749 757 758 757 755 750 753 761 767 771 770 778 788 786 783 787 792 785 768 762 770 771 772 778 777 773 776 780 777 769 766 768 767 766 766 768 771 784 792 778 778 806 812 797 795 795 789 788 789 787 788 789 788 786 786 787 785 783 783
795 793 790 788 787 782 781 781 779 781 780 776 773 771 771 771 770 773 779 792 793 772 761 759 757 754 747 749 749 747 764 766 750 747 748 751 753 760 772 771 772 781 780 777 782 783 774 761 761 768 770 772 776 776 766 764 777 782 767 755 756 760 763 765 766 774 791 793 774 772 795 808 804 798 791 788 790 791 790 789 788 788 787 786 786 784 783 782
794 792 789 788 786 783 782 781 780 780 778 774 772 772 771 769 771 771 782 805 799 770 764 764 758 754 748 748 746 755 777 768 749 749 747 750 751 753 772 777 774 776 769 773 785 777 765 761 763 765 768 771 773 771 760 755 773 779 758 750 756 757 761 763 764 774 779 775 773 775 782 798 806 797 786 786 792 793 792 791 788 786 785 784 783 782 781 780
792 790 789 787 786 785 783 782 781 778 775 772 770 771 770 769 771 772 791 815 796 762 760 760 752 747 745 746 746 756 764 756 760 761 743 746 752 755 773 776 775 778 766 778 795 776 761 766 765 762 768 771 766 761 752 750 766 765 748 748 754 754 758 759 764 772 769 774 788 783 777 793 802 793 786 787 793 796 792 789 786 784 782 781 781 780 779 778
790 789 787 785 785 784 783 782 780 776 773 771 770 770 768 768 770 777 800 810 783 758 755 754 752 750 749 752 753 755 754 753 763 759 743 749 752 754 770 769 769 776 767 773 785 772 761 760 755 756 765 766 758 751 746 750 759 752 743 747 749 751 756 757 764 769 770 784 795 782 776 791 800 796 794 795 795 792 786 783 781 779 778 778 777 778 777 776
788 787 785 784 783 782 782 780 776 773 772 770 771 768 766 770 776 795 812 799 775 762 755 754 758 756 757 763 764 760 759 759 756 752 752 755 753 754 760 758 762 772 771 769 772 767 757 748 745 749 754 751 747 744 743 746 749 745 746 753 756 758 758 760 764 768 781 797 791 775 773 783 794 795 793 791 783 775 775 778 777 775 775 775 774 774 775 774
785 784 783 781 780 781 781 778 772 772 772 771 770 767 770 777 787 809 808 778 766 767 759 761 761 757 761 768 769 764 762 762 756 758 763 761 761 765 765 766 769 776 781 776 770 764 756 753 750 743 739 739 743 745 742 739 740 746 754 762 771 773 768 772 773 774 795 805 785 770 769 777 791 788 780 777 765 759 765 770 770 771 771 771 771 771 771 771
781 780 779 778 777 777 777 774 771 771 771 771 771 769 777 791 799 806 791 766 770 772 762 764 763 759 763 766 768 765 764 765 759 760 766 767 771 772 773 778 778 786 794 786 778 771 763 758 751 743 735 735 747 755 752 746 744 753 762 770 787 796 795 798 795 792 802 798 777 767 768 778 786 773 763 765 760 754 755 756 759 762 764 767 767 768 768 768
778 776 775 773 772 772 771 771 771 772 771 770 772 772 784 802 801 790 778 770 772 763 754 759 758 757 763 767 768 763 763 766 762 761 763 766 773 772 771 770 769 783 793 786 785 784 776 761 749 751 745 735 744 760 766 762 756 761 767 775 792 806 815 820 811 806 806 792 772 764 770 784 785 765 753 754 752 747 745 746 750 751 755 760 761 763 765 766
773 772 771 769 768 768 768 770 771 772 772 770 775 781 792 802 790 775 772 768 760 753 752 756 757 760 764 766 765 759 764 768 760 762 766 768 777 778 774 769 765 773 781 785 788 787 793 783 759 755 752 740 741 750 756 757 758 760 757 764 781 790 805 815 809 807 806 792 777 771 777 789 786 766 749 744 742 740 739 740 742 745 749 753 757 761 764 764
771 769 768 766 766 766 766 769 770 771 773 772 780 792 799 797 785 773 767 757 753 754 753 752 757 767 769 765 760 753 759 767 760 762 768 771 776 775 772 770 765 767 777 790 787 778 791 787 755 742 741 737 742 740 736 749 763 759 750 763 775 770 777 791 790 788 790 792 790 784 783 779 769 756 745 741 741 738 737 738 742 747 749 753 758 761 762 763
769 767 766 764 764 764 765 768 769 771 773 774 786 797 795 786 776 768 755 745 748 751 755 760 762 771 776 770 764 756 753 759 762 765 769 768 769 767 766 762 758 761 769 780 780 776 786 778 749 741 740 733 738 736 731 746 763 761 760 768 762 749 758 779 785 777 781 799 800 790 786 775 766 760 747 743 745 741 740 742 744 748 749 753 758 758 760 761
767 765 764 762 762 763 764 766 768 771 772 777 789 791 782 770 760 755 747 738 739 742 755 770 767 768 775 773 768 761 755 758 762 766 770 770 766 760 759 755 750 752 755 762 770 768 777 777 752 744 749 735 726 731 731 732 742 758 767 759 746 747 754 769 787 789 794 809 803 788 787 783 782 776 756 748 751 748 747 746 746 749 750 753 755 755 757 757
766 765 763 760 760 762 764 766 768 770 773 781 790 785 774 764 750 744 742 735 736 741 754 767 763 760 768 772 767 758 756 762 764 765 768 769 762 750 750 752 745 744 743 750 764 760 765 781 761 740 747 738 723 735 747 737 730 742 749 740 747 770 774 771 786 796 802 813 806 791 787 784 782 775 760 755 753 751 751 749 749 751 751 753 754 754 755 756
766 767 763 758 759 762 764 767 767 771 777 785 790 781 767 759 745 737 736 733 734 742 751 756 754 754 759 761 760 755 755 759 761 764 764 766 762 745 740 745 742 740 739 745 760 757 756 777 772 744 739 739 733 744 760 754 739 735 739 739 746 762 770 771 776 781 792 807 807 800 795 786 772 759 753 752 746 747 752 751 750 751 749 751 752 753 755 756
766 769 766 758 759 763 764 766 769 776 783 784 783 774 762 755 743 731 727 726 728 735 743 746 746 751 754 751 749 749 751 752 755 759 758 758 759 746 735 738 738 737 737 740 751 754 754 770 776 755 741 748 754 752 754 755 751 749 753 756 755 753 757 763 766 765 774 791 800 803 803 786 758 744 744 742 737 740 744 746 748 748 748 749 750 751 753 755
767 772 769 759 760 763 764 771 776 779 783 781 776 769 760 753 744 732 722 719 723 725 728 734 739 743 745 746 746 744 747 752 752 755 754 751 754 750 734 728 730 733 739 748 751 752 756 765 772 766 758 762 760 744 737 741 744 748 753 754 755 756 760 774 780 766 760 772 781 791 802 783 746 734 737 734 731 734 736 741 745 746 746 748 748 749 751 753
771 774 769 761 762 762 765 775 777 777 779 775 769 762 754 749 744 735 724 719 722 722 720 727 734 735 738 740 742 741 745 751 751 751 750 745 747 745 730 719 722 726 736 750 750 741 744 756 767 769 764 761 752 735 730 732 731 737 743 743 747 753 759 776 785 769 759 766 767 774 793 778 740 728 733 730 727 729 732 737 741 743 745 746 747 748 750 752
774 774 767 762 763 761 768 778 776 774 774 765 758 753 747 747 744 736 728 725 726 725 726 729 731 733 735 734 736 740 742 747 750 747 744 741 738 734 725 718 721 726 734 747 747 738 742 757 768 770 763 753 743 733 727 726 728 738 742 738 743 749 749 754 760 757 761 769 766 776 793 776 740 727 730 729 727 728 731 734 737 742 743 744 746 748 750 753
779 775 768 766 764 763 773 780 776 775 771 762 759 753 743 740 738 733 732 731 728 728 732 733 729 730 731 729 733 740 741 746 752 746 741 742 736 727 722 719 722 729 735 741 742 740 750 763 769 777 782 774 764 755 746 738 738 745 745 737 736 739 740 743 746 750 762 766 763 776 790 772 742 729 729 730 731 732 734 733 734 739 742 744 746 747 749 752
780 776 771 768 766 767 773 775 775 778 774 769 767 758 749 742 731 726 729 729 724 726 733 734 727 726 728 728 733 739 739 744 751 748 744 743 736 726 723 724 724 728 730 730 730 734 750 762 765 779 796 799 793 782 769 757 750 749 746 738 734 734 736 743 749 757 767 765 759 768 776 765 746 737 736 735 735 737 737 735 735 737 740 742 745 747 749 751
780 779 777 773 769 770 772 768 771 778 776 774 771 760 755 752 736 723 725 728 725 723 729 730 725 727 732 733 740 746 743 742 746 749 749 748 742 732 726 726 726 726 726 725 724 732 750 758 758 768 780 783 781 771 758 755 758 756 748 740 737 734 733 740 752 760 760 759 760 761 761 761 755 747 744 740 738 739 739 738 738 738 740 742 744 746 748 749
782 782 782 783 780 777 774 769 771 775 772 773 773 761 755 754 744 732 728 729 727 724 728 730 729 735 741 740 745 752 750 747 747 749 751 750 745 736 728 726 729 728 725 725 725 734 753 761 758 762 765 762 762 758 750 753 758 756 749 742 737 734 733 740 750 750 746 757 767 761 754 758 757 749 746 742 739 739 738 738 739 739 741 743 744 746 748 750
783 782 780 783 785 783 779 774 772 772 768 767 766 760 756 755 750 744 736 730 727 728 735 740 738 739 741 740 746 754 754 754 756 755 755 752 748 744 737 732 731 728 727 730 729 734 753 762 757 757 759 754 753 752 749 750 751 747 745 743 738 735 735 739 740 737 740 754 763 757 753 756 753 747 744 739 735 736 736 736 737 739 741 743 745 747 749 751
784 785 781 779 782 782 779 774 771 770 767 762 759 757 757 757 753 746 738 736 738 735 738 749 749 744 742 741 747 758 761 763 767 764 758 756 754 753 752 747 739 732 731 737 735 735 750 761 754 754 759 755 751 750 747 747 748 744 741 740 735 732 731 733 734 734 738 747 750 748 753 753 747 742 739 734 733 734 735 738 739 741 744 745 746 749 750 751
788 790 788 785 783 778 775 773 771 770 766 761 762 760 755 755 754 746 738 742 751 747 742 750 752 747 747 747 752 762 763 762 767 765 758 758 758 756 757 756 749 742 739 741 740 738 749 759 753 752 762 761 752 748 747 747 748 746 742 737 732 731 731 733 735 736 741 750 749 747 753 754 742 735 734 734 735 736 739 742 742 743 745 746 748 750 751 752
791 790 789 791 787 778 776 775 770 771 770 768 770 766 758 756 752 747 744 743 748 751 748 750 752 748 748 751 755 760 757 754 757 755 751 754 755 753 753 751 749 750 748 746 745 743 749 758 754 755 770 769 755 753 754 747 745 747 745 741 736 736 737 737 737 737 742 752 754 754 760 758 744 736 737 738 737 738 742 744 745 746 745 746 749 751 751 751
791 789 787 791 789 781 779 778 772 775 777 772 770 766 761 756 747 747 754 749 742 745 746 746 749 751 755 758 758 755 750 747 747 745 742 744 743 742 744 743 743 749 751 750 749 747 751 758 758 763 775 772 759 758 756 750 757 765 756 745 740 738 739 742 742 740 739 745 754 760 760 753 742 739 743 744 743 743 743 742 744 746 745 746 748 749 750 750